KC3SOZ Weather Reports


time (UTC)temp
C
wind
direction
speed
KPH
gust
KPH
rain 1hr
cm
rain 24hr
cm
rain mn
cm
humidity
%
barometer
mb
20260504160251 17 117 11.3 24.1 0.00 0.00 0.00 46 1012.6
20260504150716 17 188 4.8 9.7 0.00 0.00 0.00 49 1013.4
20260504150213 17 218 12.9 16.1 0.00 0.00 0.00 44 1013.4
20260504141142 16 221 8.0 12.9 0.00 0.00 0.00 43 1013.6
20260504140639 16 176 4.8 22.5 0.00 0.00 0.00 46 1013.4
20260504140135 16 245 11.3 11.3 0.00 0.00 0.00 42 1013.5
20260504130603 12 132 0.0 0.0 0.00 0.00 0.00 63 1014.3
20260504110451 1 125 0.0 0.0 0.00 0.00 0.00 99 1014.6
20260504100413 0 125 0.0 0.0 0.00 0.00 0.00 99 1014.8
20260504081806 0 114 0.0 0.0 0.00 0.00 0.00 99 1015.1
20260504081303 0 119 0.0 0.0 0.00 0.00 0.00 99 1015.2
20260504080759 0 121 0.0 0.0 0.00 0.00 0.00 99 1014.8
20260504080255 0 121 0.0 0.0 0.00 0.00 0.00 99 1014.9
20260504070223 0 121 0.0 0.0 0.00 0.00 0.00 99 1014.9
20260504060144 1 116 0.0 1.6 0.00 0.00 0.00 99 1014.9
20260504050612 1 122 0.0 0.0 0.00 0.00 0.00 97 1015.0
20260504050109 1 121 0.0 0.0 0.00 0.00 0.00 97 1015.1
20260504045606 2 122 0.0 0.0 0.00 0.00 0.00 97 1014.7
20260504045101 2 122 0.0 0.0 0.00 0.00 0.00 97 1014.8
20260504044559 1 122 0.0 0.0 0.00 0.00 0.00 97 1015.1
20260504044055 1 122 0.0 1.6 0.00 0.00 0.00 96 1014.8
20260504043553 2 122 0.0 0.0 0.00 0.00 0.00 96 1015.0
20260504043049 2 122 0.0 0.0 0.00 0.00 0.00 96 1015.0
20260504042547 2 122 0.0 3.2 0.00 0.00 0.00 96 1014.9
20260504042044 2 122 0.0 0.0 0.00 0.00 0.00 96 1014.8
20260504041539 2 122 0.0 0.0 0.00 0.00 0.00 96 1014.8
20260504041036 2 123 0.0 0.0 0.00 0.00 0.00 96 1015.0
20260504040533 2 123 0.0 0.0 0.00 0.00 0.00 95 1014.8
20260504040030 2 123 0.0 0.0 0.00 0.00 0.00 95 1014.7
20260504035527 2 123 0.0 0.0 0.00 0.00 0.00 95 1014.7
20260504035023 2 122 0.0 0.0 0.00 0.00 0.00 94 1014.6
20260504034521 2 122 0.0 0.0 0.00 0.00 0.00 94 1014.6
20260504034017 2 122 0.0 0.0 0.00 0.00 0.00 93 1014.4
20260504033516 2 127 0.0 0.0 0.00 0.00 0.00 93 1014.4
20260504033013 2 127 0.0 0.0 0.00 0.00 0.00 92 1014.2
20260504032509 3 126 0.0 0.0 0.00 0.00 0.00 92 1014.3
20260504032006 3 126 0.0 0.0 0.00 0.00 0.00 92 1014.4
20260504031503 3 131 0.0 0.0 0.00 0.00 0.00 92 1014.4
20260504030959 3 132 0.0 0.0 0.00 0.00 0.00 92 1014.4
20260504030457 3 133 0.0 0.0 0.00 0.00 0.00 92 1014.3
20260504025952 3 133 0.0 0.0 0.00 0.00 0.00 91 1014.2
20260504025450 3 162 0.0 0.0 0.00 0.00 0.00 90 1014.4
20260504024946 3 162 0.0 0.0 0.00 0.00 0.00 89 1014.3
20260504024443 4 162 0.0 0.0 0.00 0.00 0.00 88 1014.3
20260504023940 4 162 0.0 0.0 0.00 0.00 0.00 87 1014.3
20260504023437 4 162 0.0 0.0 0.00 0.00 0.00 87 1014.3
20260504022932 5 162 0.0 0.0 0.00 0.00 0.00 86 1014.5
20260504022429 5 162 0.0 0.0 0.00 0.00 0.00 85 1014.3
20260504021926 5 162 0.0 0.0 0.00 0.00 0.00 84 1014.1
20260504021423 5 162 0.0 0.0 0.00 0.00 0.00 85 1014.3
20260504020920 5 162 0.0 0.0 0.00 0.00 0.00 84 1014.2
20260504020417 5 162 0.0 0.0 0.00 0.00 0.00 82 1014.2
20260504015914 5 162 0.0 0.0 0.00 0.00 0.00 78 1014.4
20260504015410 6 162 0.0 0.0 0.00 0.00 0.00 79 1014.2
20260504014906 6 162 0.0 0.0 0.00 0.00 0.00 75 1014.4
20260504014402 6 162 0.0 0.0 0.00 0.00 0.00 75 1014.5
20260504013859 6 162 0.0 0.0 0.00 0.00 0.00 74 1014.2
20260504013357 7 162 0.0 0.0 0.00 0.00 0.00 74 1014.3
20260504012853 7 162 0.0 0.0 0.00 0.00 0.00 74 1014.3
20260504012351 7 162 0.0 0.0 0.00 0.00 0.00 73 1014.2
20260504011849 7 162 0.0 0.0 0.00 0.00 0.00 70 1014.0
20260504011345 7 162 0.0 0.0 0.00 0.00 0.00 69 1014.0
20260504010841 8 162 0.0 0.0 0.00 0.00 0.00 68 1014.0
20260504010337 8 162 0.0 1.6 0.00 0.00 0.00 67 1014.2
20260504005833 9 164 0.0 0.0 0.00 0.00 0.00 63 1013.8
20260504005330 9 162 0.0 0.0 0.00 0.00 0.00 61 1013.9
20260504004828 9 162 0.0 0.0 0.00 0.00 0.00 61 1013.9
20260504004325 10 166 1.6 3.2 0.00 0.00 0.00 61 1013.8
20260504003821 10 160 1.6 3.2 0.00 0.00 0.00 60 1014.0
20260504003319 10 167 1.6 3.2 0.00 0.00 0.00 58 1013.8
20260504002815 10 162 1.6 3.2 0.00 0.00 0.00 57 1013.7
20260504002312 11 203 1.6 3.2 0.00 0.00 0.00 55 1013.6
20260504001810 11 186 4.8 4.8 0.00 0.00 0.00 52 1013.4
20260504001307 11 188 4.8 4.8 0.00 0.00 0.00 51 1013.4
20260504000804 11 183 3.2 4.8 0.00 0.00 0.00 52 1013.5
20260504000301 12 160 0.0 4.8 0.00 0.00 0.00 50 1013.4
20260503235759 12 248 4.8 8.0 0.00 0.00 0.00 51 1013.3
20260503235256 12 197 6.4 9.7 0.00 0.00 0.00 48 1013.5
20260503234753 12 213 3.2 8.0 0.00 0.00 0.00 48 1013.1
20260503234251 13 180 1.6 8.0 0.00 0.00 0.00 48 1013.2
20260503233748 13 250 4.8 14.5 0.00 0.00 0.00 42 1013.0
20260503233244 13 217 3.2 8.0 0.00 0.00 0.00 43 1013.0
20260503232741 13 245 4.8 9.7 0.00 0.00 0.00 43 1013.2
20260503232238 13 254 4.8 11.3 0.00 0.00 0.00 42 1013.0
20260503231736 13 264 6.4 14.5 0.00 0.00 0.00 42 1013.1
20260503231233 13 283 6.4 24.1 0.00 0.00 0.00 42 1013.1
20260503230729 13 241 4.8 11.3 0.00 0.00 0.00 43 1013.0
20260503230226 13 230 9.7 16.1 0.00 0.00 0.00 44 1013.0
20260503225724 14 252 6.4 9.7 0.00 0.00 0.00 44 1012.7
20260503225224 14 184 4.8 9.7 0.00 0.00 0.00 44 1013.0
20260503224721 14 262 9.7 22.5 0.00 0.00 0.00 42 1013.0
20260503224219 14 226 8.0 14.5 0.00 0.00 0.00 42 1012.7
20260503223716 14 171 4.8 14.5 0.00 0.00 0.00 41 1013.0
20260503223213 15 280 11.3 14.5 0.00 0.00 0.00 39 1013.2
20260503222710 15 222 6.4 11.3 0.00 0.00 0.00 40 1013.0
20260503222208 15 249 9.7 22.5 0.00 0.00 0.00 41 1012.8
20260503221706 15 234 9.7 14.5 0.00 0.00 0.00 40 1013.2
20260503221203 15 274 9.7 16.1 0.00 0.00 0.00 40 1012.8
20260503220700 15 124 4.8 14.5 0.00 0.00 0.00 40 1013.1
20260503220156 15 242 4.8 16.1 0.00 0.00 0.00 42 1013.0
20260503215653 15 239 9.7 14.5 0.00 0.00 0.00 41 1013.2
20260503215150 15 225 9.7 14.5 0.00 0.00 0.00 42 1012.8
20260503214649 15 245 9.7 25.7 0.00 0.00 0.00 38 1013.0
20260503214144 16 241 8.0 12.9 0.00 0.00 0.00 41 1012.7
20260503213644 15 145 9.7 17.7 0.00 0.00 0.00 41 1013.0
20260503213140 15 227 6.4 12.9 0.00 0.00 0.00 40 1012.8
20260503212637 15 331 12.9 22.5 0.00 0.00 0.00 40 1012.6
20260503212135 14 259 9.7 12.9 0.00 0.00 0.00 41 1012.8
20260503211632 14 313 16.1 20.9 0.00 0.00 0.00 41 1012.8
20260503211127 14 331 8.0 16.1 0.00 0.00 0.00 40 1013.0
20260503210624 14 254 9.7 17.7 0.00 0.00 0.00 42 1013.0
20260503210121 14 270 8.0 22.5 0.00 0.00 0.00 42 1012.7
20260503205616 14 286 12.9 24.1 0.00 0.00 0.00 43 1012.6
20260503205113 15 259 8.0 14.5 0.00 0.00 0.00 40 1012.7
20260503204610 15 261 11.3 20.9 0.00 0.00 0.00 42 1012.7
20260503204107 14 260 6.4 11.3 0.00 0.00 0.00 40 1013.0
20260503203604 15 0 8.0 22.5 0.00 0.00 0.00 43 1012.6
20260503203101 15 213 11.3 16.1 0.00 0.00 0.00 42 1012.8
20260503202559 15 289 11.3 16.1 0.00 0.00 0.00 40 1012.8
20260503202057 15 258 8.0 16.1 0.00 0.00 0.00 42 1013.1
20260503201555 15 134 8.0 14.5 0.00 0.00 0.00 41 1013.0
20260503201052 14 204 9.7 12.9 0.00 0.00 0.00 45 1013.0
20260503200548 15 239 8.0 24.1 0.00 0.00 0.00 40 1013.2
20260503200045 15 302 8.0 14.5 0.00 0.00 0.00 43 1013.3
20260503195542 15 337 17.7 22.5 0.00 0.00 0.00 39 1013.1
20260503195039 15 222 8.0 17.7 0.00 0.00 0.00 39 1013.3
20260503194536 14 290 8.0 17.7 0.00 0.00 0.00 41 1013.3
20260503194035 14 347 9.7 14.5 0.00 0.00 0.00 41 1013.4
20260503193533 14 275 8.0 16.1 0.00 0.00 0.00 46 1013.3
20260503193028 15 304 8.0 12.9 0.00 0.00 0.00 41 1013.5
20260503192524 14 225 4.8 9.7 0.00 0.00 0.00 44 1013.7
20260503192020 15 250 6.4 9.7 0.00 0.00 0.00 42 1013.7
20260503191517 14 247 9.7 12.9 0.00 0.00 0.00 44 1013.8
20260503191014 13 324 6.4 16.1 0.00 0.00 0.00 42 1014.0
20260503190511 13 221 8.0 14.5 0.00 0.00 0.00 43 1014.0
20260503190008 14 269 8.0 24.1 0.00 0.00 0.00 42 1013.9
20260503185504 12 297 8.0 11.3 0.00 0.00 0.00 44 1014.1
20260503185004 13 299 6.4 14.5 0.00 0.00 0.00 41 1014.2
20260503184500 13 263 11.3 17.7 0.00 0.00 0.00 41 1014.3
20260503183957 13 279 9.7 16.1 0.00 0.00 0.00 43 1014.3
20260503183453 13 320 6.4 17.7 0.00 0.00 0.00 44 1014.2
20260503182950 13 264 11.3 22.5 0.00 0.00 0.00 41 1014.2
20260503182450 13 257 8.0 12.9 0.00 0.00 0.00 40 1014.2
20260503181946 12 290 11.3 32.2 0.00 0.00 0.00 43 1014.6
20260503181444 12 265 8.0 20.9 0.00 0.00 0.00 44 1014.4
20260503180939 12 255 8.0 14.5 0.00 0.00 0.00 47 1014.4
20260503180438 12 242 6.4 12.9 0.00 0.00 0.00 43 1014.4
20260503175934 13 323 9.7 20.9 0.00 0.00 0.00 44 1014.5
20260503175433 12 300 9.7 16.1 0.00 0.00 0.00 44 1014.4
20260503174928 12 216 6.4 16.1 0.00 0.00 0.00 46 1014.6
20260503174426 12 323 8.0 9.7 0.00 0.00 0.00 43 1014.8
20260503173926 12 258 8.0 24.1 0.00 0.00 0.00 47 1014.9
20260503173423 12 171 4.8 17.7 0.00 0.00 0.00 48 1014.7
20260503172920 12 247 12.9 22.5 0.00 0.00 0.00 44 1014.7
20260503172417 11 348 11.3 14.5 0.00 0.00 0.00 44 1014.7
20260503171913 12 284 9.7 20.9 0.00 0.00 0.00 47 1014.8
20260503171410 12 283 6.4 20.9 0.00 0.00 0.00 48 1015.1
20260503170908 11 74 8.0 20.9 0.00 0.00 0.00 49 1014.9
20260503170404 11 306 6.4 11.3 0.00 0.00 0.00 48 1015.3